�������l�o���
Date,Time,MP-1(��Sv/h),MP-2(��Sv/h),MP-3(��Sv/h),MP-4(��Sv/h),MP-5(��Sv/h),MP-6(��Sv/h),MP-7(��Sv/h),MP-8(��Sv/h),����,����(m/s),���J
2020/10/22,00:00,0.657,0.943,0.595,1.153,0.833,0.383,0.664,0.628,�k��,1.7,��
2020/10/22,00:10,0.657,0.942,0.596,1.152,0.831,0.382,0.664,0.630,���k��,2.3,��
2020/10/22,00:20,0.657,0.942,0.596,1.153,0.831,0.382,0.664,0.628,���k��,2.2,��
2020/10/22,00:30,0.658,0.943,0.597,1.152,0.830,0.382,0.664,0.629,�k��,1.4,��
2020/10/22,00:40,0.657,0.942,0.597,1.154,0.831,0.384,0.665,0.630,��,1.2,��
2020/10/22,00:50,0.660,0.942,0.594,1.153,0.832,0.383,0.663,0.630,��,0.9,��
2020/10/22,01:00,0.658,0.942,0.595,1.154,0.832,0.381,0.664,0.630,���쐼,1.1,��
2020/10/22,01:10,0.658,0.940,0.597,1.151,0.830,0.383,0.664,0.629,-,CALM,��
2020/10/22,01:20,0.657,0.943,0.597,1.153,0.833,0.383,0.665,0.631,��,0.9,��
2020/10/22,01:30,0.657,0.941,0.594,1.154,0.832,0.382,0.664,0.632,��,1.7,��
2020/10/22,01:40,0.658,0.941,0.596,1.155,0.832,0.382,0.664,0.630,��,1.2,��
2020/10/22,01:50,0.658,0.943,0.596,1.154,0.831,0.383,0.664,0.629,��,1.2,��
2020/10/22,02:00,0.659,0.942,0.595,1.151,0.832,0.383,0.662,0.628,���쐼,1.7,��
2020/10/22,02:10,0.659,0.943,0.596,1.152,0.833,0.382,0.665,0.629,���쐼,1.5,��
2020/10/22,02:20,0.657,0.941,0.596,1.153,0.830,0.383,0.665,0.629,���쐼,1.2,��
2020/10/22,02:30,0.658,0.942,0.597,1.152,0.831,0.383,0.665,0.629,��,0.9,��
2020/10/22,02:40,0.658,0.942,0.596,1.153,0.832,0.383,0.664,0.630,��,0.6,��
2020/10/22,02:50,0.658,0.942,0.598,1.153,0.831,0.382,0.665,0.629,-,CALM,��
2020/10/22,03:00,0.660,0.945,0.597,1.152,0.832,0.383,0.664,0.630,-,CALM,��
2020/10/22,03:10,0.658,0.945,0.596,1.154,0.832,0.381,0.664,0.629,-,CALM,��
2020/10/22,03:20,0.659,0.943,0.598,1.155,0.833,0.381,0.664,0.629,�k�k��,0.6,��
2020/10/22,03:30,0.659,0.944,0.596,1.153,0.831,0.383,0.664,0.629,���k��,1.2,��
2020/10/22,03:40,0.657,0.943,0.596,1.153,0.830,0.383,0.664,0.629,-,CALM,��
2020/10/22,03:50,0.657,0.945,0.596,1.153,0.831,0.384,0.665,0.629,-,CALM,��
2020/10/22,04:00,0.658,0.941,0.597,1.152,0.831,0.383,0.665,0.630,��쐼,0.6,��
2020/10/22,04:10,0.657,0.942,0.597,1.152,0.832,0.382,0.665,0.629,���쐼,0.9,��
2020/10/22,04:20,0.660,0.943,0.596,1.153,0.830,0.383,0.664,0.631,��쐼,1.1,��
2020/10/22,04:30,0.657,0.944,0.597,1.154,0.831,0.381,0.667,0.630,��쐼,1.7,��
2020/10/22,04:40,0.658,0.939,0.598,1.154,0.830,0.383,0.665,0.629,�쐼,0.8,��
2020/10/22,04:50,0.657,0.944,0.596,1.154,0.831,0.383,0.664,0.629,��,0.9,��
2020/10/22,05:00,0.657,0.941,0.596,1.153,0.831,0.381,0.665,0.630,-,CALM,��
2020/10/22,05:10,0.657,0.944,0.596,1.153,0.831,0.382,0.665,0.629,-,CALM,��
2020/10/22,05:20,0.657,0.943,0.596,1.152,0.829,0.382,0.666,0.629,-,CALM,��
2020/10/22,05:30,0.659,0.941,0.597,1.153,0.832,0.383,0.666,0.628,�k��,1.2,��
2020/10/22,05:40,0.658,0.943,0.597,1.154,0.831,0.382,0.665,0.631,�k�k��,1.5,��
2020/10/22,05:50,0.657,0.942,0.596,1.154,0.830,0.382,0.667,0.630,�k�k��,1.2,��
2020/10/22,06:00,0.658,0.943,0.593,1.154,0.832,0.382,0.665,0.631,�k,1.5,��
2020/10/22,06:10,0.659,0.943,0.595,1.152,0.831,0.384,0.664,0.629,�k,1.1,��
2020/10/22,06:20,0.658,0.942,0.596,1.153,0.830,0.383,0.665,0.630,�k�k��,1.1,��
2020/10/22,06:30,0.657,0.943,0.598,1.154,0.832,0.383,0.665,0.629,�k�k��,0.6,��
2020/10/22,06:40,0.657,0.942,0.597,1.152,0.832,0.383,0.664,0.628,�k,1.1,��
2020/10/22,06:50,0.656,0.941,0.597,1.156,0.831,0.383,0.664,0.629,�k��,0.9,��
2020/10/22,07:00,0.658,0.942,0.597,1.156,0.833,0.383,0.665,0.629,�k��,1.1,��
2020/10/22,07:10,0.659,0.942,0.598,1.152,0.829,0.382,0.665,0.630,-,CALM,��
2020/10/22,07:20,0.657,0.941,0.598,1.153,0.831,0.383,0.664,0.629,�k,0.8,��
2020/10/22,07:30,0.658,0.945,0.596,1.152,0.830,0.383,0.667,0.629,���k��,0.9,��
2020/10/22,07:40,0.659,0.944,0.599,1.152,0.832,0.382,0.666,0.629,�쐼,0.8,��
2020/10/22,07:50,0.658,0.942,0.596,1.155,0.831,0.382,0.666,0.630,-,CALM,��
2020/10/22,08:00,0.658,0.941,0.596,1.155,0.832,0.383,0.665,0.628,��,0.9,��
2020/10/22,08:10,0.657,0.939,0.597,1.154,0.832,0.381,0.664,0.630,��,1.7,��
2020/10/22,08:20,0.658,0.941,0.596,1.151,0.833,0.382,0.666,0.631,��,1.1,��
2020/10/22,08:30,0.658,0.943,0.596,1.154,0.831,0.382,0.666,0.628,��,1.5,��
2020/10/22,08:40,0.658,0.940,0.597,1.154,0.830,0.382,0.664,0.630,��쐼,2.6,��
2020/10/22,08:50,0.657,0.940,0.598,1.154,0.832,0.383,0.663,0.630,��,2.8,��
2020/10/22,09:00,0.659,0.939,0.597,1.154,0.832,0.383,0.665,0.630,��,3.3,��
2020/10/22,09:10,0.660,0.939,0.598,1.152,0.833,0.383,0.665,0.629,��쐼,3.5,��
2020/10/22,09:20,0.657,0.936,0.599,1.155,0.831,0.381,0.663,0.629,��,3.3,��
2020/10/22,09:30,0.658,0.940,0.597,1.152,0.831,0.382,0.665,0.628,��,2.3,��
2020/10/22,09:40,0.657,0.939,0.598,1.153,0.832,0.382,0.664,0.627,��쓌,2.2,��
2020/10/22,09:50,0.659,0.938,0.598,1.153,0.831,0.382,0.663,0.628,��,1.7,��
2020/10/22,10:00,0.659,0.938,0.598,1.155,0.830,0.382,0.663,0.628,��쐼,2.6,��
2020/10/22,10:10,0.659,0.939,0.598,1.153,0.833,0.381,0.662,0.629,��쐼,1.5,��
2020/10/22,10:20,0.660,0.941,0.597,1.155,0.832,0.383,0.664,0.628,��쐼,1.4,�L
2020/10/22,10:30,0.659,0.939,0.598,1.153,0.831,0.382,0.664,0.628,��쐼,2.3,��
2020/10/22,10:40,0.660,0.939,0.600,1.152,0.830,0.382,0.663,0.626,��,2.0,��
2020/10/22,10:50,0.658,0.940,0.598,1.153,0.831,0.382,0.663,0.628,��,2.6,��
2020/10/22,11:00,0.658,0.942,0.597,1.154,0.834,0.382,0.662,0.627,��,1.9,��
2020/10/22,11:10,0.659,0.941,0.597,1.154,0.831,0.383,0.664,0.628,��,1.5,��
2020/10/22,11:20,0.660,0.939,0.599,1.154,0.831,0.381,0.665,0.629,��쓌,1.5,��
2020/10/22,11:30,0.657,0.942,0.599,1.154,0.832,0.383,0.664,0.629,��쓌,1.7,��
2020/10/22,11:40,0.658,0.943,0.599,1.154,0.832,0.382,0.664,0.628,���쓌,1.9,�L
2020/10/22,11:50,0.658,0.945,0.597,1.153,0.834,0.381,0.665,0.628,�쓌,1.7,��
2020/10/22,12:00,0.657,0.941,0.597,1.156,0.831,0.384,0.664,0.629,��쓌,1.7,��
2020/10/22,12:10,0.656,0.941,0.596,1.151,0.832,0.382,0.665,0.628,�쓌,3.0,��
2020/10/22,12:20,0.657,0.941,0.595,1.156,0.831,0.381,0.665,0.627,�쓌,3.0,��
2020/10/22,12:30,0.656,0.938,0.597,1.156,0.829,0.382,0.665,0.627,�쓌,3.2,��
2020/10/22,12:40,0.655,0.939,0.594,1.155,0.831,0.382,0.666,0.627,�쓌,2.2,��
2020/10/22,12:50,0.657,0.941,0.595,1.153,0.831,0.382,0.664,0.627,�쓌,2.5,��
2020/10/22,13:00,0.657,0.937,0.595,1.153,0.831,0.381,0.664,0.627,�쓌,2.6,��
2020/10/22,13:10,0.658,0.937,0.595,1.156,0.833,0.380,0.666,0.627,�쓌,2.8,��
2020/10/22,13:20,0.657,0.939,0.594,1.155,0.831,0.381,0.666,0.627,��쓌,3.0,��
2020/10/22,13:30,0.656,0.940,0.597,1.156,0.832,0.381,0.666,0.626,��쓌,3.3,��
2020/10/22,13:40,0.658,0.940,0.596,1.155,0.831,0.381,0.666,0.626,�쓌,3.6,��
2020/10/22,13:50,0.657,0.941,0.594,1.155,0.831,0.381,0.665,0.627,�쓌,3.2,��
2020/10/22,14:00,0.658,0.940,0.596,1.156,0.832,0.383,0.666,0.627,�쓌,2.6,��
2020/10/22,14:10,0.659,0.943,0.596,1.157,0.831,0.381,0.667,0.627,��쓌,3.2,��
2020/10/22,14:20,0.658,0.943,0.595,1.154,0.832,0.380,0.665,0.628,��쓌,2.8,��
2020/10/22,14:30,0.660,0.943,0.594,1.155,0.830,0.381,0.666,0.628,��쓌,3.2,��
2020/10/22,14:40,0.658,0.941,0.597,1.154,0.832,0.383,0.667,0.627,��쓌,3.3,��
2020/10/22,14:50,0.660,0.941,0.595,1.154,0.829,0.381,0.665,0.628,��쓌,3.6,��
2020/10/22,15:00,0.659,0.942,0.597,1.154,0.832,0.382,0.665,0.627,��쓌,3.6,��
2020/10/22,15:10,0.658,0.941,0.596,1.155,0.831,0.382,0.667,0.627,��쓌,3.1,��
2020/10/22,15:20,0.658,0.944,0.595,1.156,0.831,0.381,0.665,0.628,��쓌,4.1,��
2020/10/22,15:30,0.652,0.942,0.597,1.155,0.830,0.381,0.666,0.627,��쓌,4.9,��
2020/10/22,15:40,0.656,0.937,0.597,1.154,0.831,0.381,0.667,0.628,��쓌,4.3,��
2020/10/22,15:50,0.656,0.938,0.597,1.154,0.832,0.382,0.665,0.628,��쓌,4.2,��
2020/10/22,16:00,0.655,0.944,0.597,1.156,0.830,0.382,0.665,0.628,��쓌,4.3,��
2020/10/22,16:10,0.658,0.945,0.598,1.155,0.830,0.384,0.666,0.626,��쓌,3.2,��
2020/10/22,16:20,0.657,0.947,0.596,1.157,0.833,0.383,0.665,0.629,��쓌,3.5,��
2020/10/22,16:30,0.655,0.945,0.599,1.158,0.834,0.383,0.665,0.628,�쓌,2.2,��
2020/10/22,16:40,0.657,0.943,0.597,1.157,0.831,0.382,0.666,0.629,��쓌,2.6,��
2020/10/22,16:50,0.657,0.947,0.599,1.154,0.832,0.383,0.666,0.628,��쓌,2.9,��
2020/10/22,17:00,0.659,0.948,0.599,1.156,0.832,0.382,0.665,0.629,��,3.6,��
2020/10/22,17:10,0.659,0.951,0.600,1.155,0.831,0.385,0.665,0.629,��,3.9,��
2020/10/22,17:20,0.659,0.950,0.598,1.157,0.831,0.383,0.666,0.631,��,4.4,��
2020/10/22,17:30,0.661,0.949,0.598,1.156,0.834,0.384,0.666,0.630,��,4.5,��
2020/10/22,17:40,0.661,0.951,0.599,1.153,0.832,0.381,0.669,0.631,��,3.6,��
2020/10/22,17:50,0.662,0.949,0.601,1.156,0.835,0.385,0.665,0.631,��,3.5,��
2020/10/22,18:00,0.660,0.948,0.601,1.157,0.835,0.384,0.667,0.630,��,3.4,��
2020/10/22,18:10,0.660,0.950,0.600,1.156,0.836,0.383,0.671,0.631,��,4.2,��
2020/10/22,18:20,0.659,0.949,0.599,1.156,0.835,0.384,0.666,0.630,��,4.5,��
2020/10/22,18:30,0.662,0.946,0.601,1.157,0.834,0.384,0.668,0.630,��,4.3,��
2020/10/22,18:40,0.661,0.949,0.599,1.156,0.832,0.383,0.668,0.630,��,4.1,��
2020/10/22,18:50,0.661,0.949,0.601,1.159,0.835,0.384,0.668,0.631,��,3.9,��
2020/10/22,19:00,0.661,0.947,0.601,1.156,0.833,0.384,0.668,0.629,��,3.3,��
2020/10/22,19:10,0.661,0.945,0.599,1.157,0.834,0.383,0.667,0.630,��,3.8,��
2020/10/22,19:20,0.660,0.949,0.598,1.156,0.833,0.383,0.669,0.628,��,4.5,��
2020/10/22,19:30,0.662,0.947,0.600,1.157,0.834,0.383,0.666,0.630,��,4.8,��
2020/10/22,19:40,0.661,0.948,0.600,1.157,0.834,0.384,0.667,0.630,��,4.7,��
2020/10/22,19:50,0.661,0.949,0.599,1.157,0.834,0.384,0.667,0.631,��쐼,4.6,��
2020/10/22,20:00,0.660,0.950,0.600,1.157,0.836,0.385,0.666,0.631,��쐼,5.0,��
2020/10/22,20:10,0.662,0.947,0.599,1.158,0.836,0.384,0.666,0.631,��쐼,5.0,��
2020/10/22,20:20,0.662,0.946,0.600,1.158,0.836,0.385,0.668,0.631,��쐼,5.1,��
2020/10/22,20:30,0.662,0.947,0.599,1.157,0.834,0.385,0.667,0.630,��,5.2,��
2020/10/22,20:40,0.662,0.948,0.600,1.155,0.835,0.385,0.668,0.632,��,5.0,��
2020/10/22,20:50,0.663,0.947,0.600,1.157,0.834,0.384,0.667,0.631,��,5.1,��
2020/10/22,21:00,0.662,0.946,0.598,1.158,0.836,0.384,0.665,0.631,��,5.2,��
2020/10/22,21:10,0.661,0.947,0.598,1.159,0.835,0.384,0.667,0.629,��,4.8,��
2020/10/22,21:20,0.663,0.947,0.599,1.158,0.835,0.384,0.667,0.631,��,5.0,��
2020/10/22,21:30,0.661,0.946,0.599,1.156,0.834,0.383,0.668,0.631,��,4.7,��
2020/10/22,21:40,0.661,0.945,0.601,1.156,0.834,0.384,0.667,0.630,��,5.0,��
2020/10/22,21:50,0.664,0.948,0.598,1.159,0.836,0.386,0.668,0.631,��,5.3,��
2020/10/22,22:00,0.662,0.946,0.599,1.158,0.833,0.384,0.667,0.630,��,5.7,��
2020/10/22,22:10,0.661,0.946,0.599,1.158,0.838,0.384,0.667,0.628,��,5.1,��
2020/10/22,22:20,0.662,0.948,0.599,1.158,0.834,0.385,0.667,0.631,��,4.3,��
2020/10/22,22:30,0.662,0.945,0.598,1.155,0.832,0.384,0.667,0.629,��,4.3,��
2020/10/22,22:40,0.660,0.946,0.600,1.158,0.836,0.385,0.667,0.632,��,4.7,��
2020/10/22,22:50,0.662,0.948,0.599,1.157,0.836,0.385,0.667,0.631,��,4.0,��
2020/10/22,23:00,0.661,0.947,0.600,1.157,0.835,0.384,0.667,0.631,��,3.2,��
2020/10/22,23:10,0.660,0.944,0.599,1.157,0.835,0.384,0.668,0.630,��쐼,3.2,��
2020/10/22,23:20,0.663,0.946,0.599,1.159,0.836,0.384,0.666,0.631,��쐼,2.9,��
2020/10/22,23:30,0.662,0.947,0.599,1.157,0.836,0.384,0.669,0.631,��쐼,2.5,��
2020/10/22,23:40,0.662,0.947,0.599,1.157,0.834,0.382,0.668,0.630,��,2.6,��
2020/10/22,23:50,0.662,0.947,0.600,1.156,0.836,0.385,0.666,0.630,��,1.7,��
